Location: Seven Kings
(51.5667°N, 0.1000°E)
Time: 03:27:07
(UTC+00:00)

Helios 1A Rocket - Pass Details

Date: 29 October 2020
Orbit: 562 x 587 km, 98.3° (Epoch: 24 November)

Event Time Altitude Azimuth Distance (km) Brightness Sun altitude
Rises 18:49:43 0° 184° (S) 2,794 6.4 -21.1°
Reaches altitude 10° 18:51:59 10° 192° (SSW) 1,896 5.6 -21.4°
Maximum altitude 18:55:50 38° 262° (W) 890 4.4 -22.0°
Drops below altitude 10° 18:59:41 10° 331° (NNW) 1,897 6.0 -22.6°
Sets 19:01:58 0° 340° (NNW) 2,796 6.8 -23.0°
